Cas;Teplota [C];Tlak [hPa];Svetlo [lux];Rychlost vetru [km/h];Smer vetru [stupne]
2022-10-01 00:00:01;5.46;1011.49;6;0;0
2022-10-01 00:01:01;5.46;1011.51;6;0;0
2022-10-01 00:02:01;5.26;1011.48;6;0;0
2022-10-01 00:03:01;5.43;1011.48;6;0;0
2022-10-01 00:04:01;5.32;1011.53;7;0;0
2022-10-01 00:05:01;5.35;1011.49;6;0;0
2022-10-01 00:06:01;5.27;1011.51;6;0;0
2022-10-01 00:07:01;5.36;1011.46;5;0;0
2022-10-01 00:08:01;5.32;1011.44;5;0;0
2022-10-01 00:09:01;5.34;1011.44;6;0;0
2022-10-01 00:10:01;5.29;1011.47;6;0;0
2022-10-01 00:11:01;5.21;1011.51;6;0;0
2022-10-01 00:12:01;5.32;1011.53;5;0;0
2022-10-01 00:13:01;5.42;1011.58;5;0;0
2022-10-01 00:14:01;5.4;1011.49;6;0;0
2022-10-01 00:15:01;5.42;1011.46;6;0;0
2022-10-01 00:16:01;5.38;1011.46;6;0;0
2022-10-01 00:17:01;5.4;1011.5;5;0;0
2022-10-01 00:18:01;5.32;1011.52;5;0;0
2022-10-01 00:19:01;5.45;1011.58;6;0;0
2022-10-01 00:20:01;5.47;1011.54;5;0;0
2022-10-01 00:21:01;5.39;1011.55;6;0;0
2022-10-01 00:22:01;5.38;1011.58;6;0;0
2022-10-01 00:23:01;5.36;1011.51;5;0;0
2022-10-01 00:24:01;5.35;1011.5;6;0;0
2022-10-01 00:25:01;5.24;1011.52;6;0;0
2022-10-01 00:26:01;5.31;1011.56;3;0;0
2022-10-01 00:27:01;5.38;1011.61;5;0;0
2022-10-01 00:28:01;5.35;1011.63;6;0;0
2022-10-01 00:29:02;5.06;1011.6;6;0;0
2022-10-01 00:30:01;5.14;1011.57;5;0;0
2022-10-01 00:31:01;5.21;1011.59;5;0;0
2022-10-01 00:32:01;5;1011.56;6;0;0
2022-10-01 00:33:01;5.18;1011.57;5;0;0
2022-10-01 00:34:01;5.17;1011.62;5;0;0
2022-10-01 00:35:01;5.21;1011.54;5;0;0
2022-10-01 00:36:02;5.14;1011.56;6;0;0
2022-10-01 00:37:01;5.05;1011.53;5;0;0
2022-10-01 00:38:01;5.03;1011.55;5;0;0
2022-10-01 00:39:01;5.25;1011.52;6;0;0
2022-10-01 00:40:02;5.18;1011.48;5;0;0
2022-10-01 00:41:01;5.07;1011.48;5;0;0
2022-10-01 00:42:01;5.1;1011.44;5;0;0
2022-10-01 00:43:02;5.04;1011.52;5;0;0
2022-10-01 00:44:01;5.01;1011.5;5;0;0
2022-10-01 00:45:01;5.06;1011.58;6;0;0
2022-10-01 00:46:01;5.31;1011.54;6;0;0
2022-10-01 00:47:01;5.06;1011.6;6;0;0
2022-10-01 00:48:01;5.13;1011.6;5;0;0
2022-10-01 00:49:01;5.17;1011.52;5;0;0
2022-10-01 00:50:01;5.17;1011.53;5;0;0
2022-10-01 00:51:01;5.11;1011.57;6;0;0
2022-10-01 00:52:01;5.05;1011.56;5;0;0
2022-10-01 00:53:01;4.95;1011.63;5;0;0
2022-10-01 00:54:01;4.74;1011.62;5;0;0
2022-10-01 00:55:02;4.91;1011.6;5;0;0
2022-10-01 00:56:02;4.98;1011.66;5;0;0
2022-10-01 00:57:01;4.91;1011.55;5;0;0
2022-10-01 00:58:01;4.85;1011.63;5;0;0
2022-10-01 00:59:01;4.9;1011.66;6;0;0
2022-10-01 01:00:02;4.86;1011.67;5;0;0
2022-10-01 01:01:01;4.94;1011.69;5;0;0
2022-10-01 01:02:01;4.7;1011.62;5;0;0
2022-10-01 01:03:01;4.8;1011.68;6;0;0
2022-10-01 01:04:01;4.85;1011.72;5;0;0
2022-10-01 01:05:01;4.89;1011.75;5;0;0
2022-10-01 01:06:01;4.67;1011.66;5;0;0
2022-10-01 01:07:01;4.66;1011.77;6;0;0
2022-10-01 01:08:01;4.75;1011.75;6;0;0
2022-10-01 01:09:01;4.75;1011.79;5;0;0
2022-10-01 01:10:01;4.68;1011.82;5;0;0
2022-10-01 01:11:01;4.67;1011.81;5;0;0
2022-10-01 01:12:01;4.67;1011.78;5;0;0
2022-10-01 01:13:01;4.69;1011.86;5;0;0
2022-10-01 01:14:01;4.72;1011.85;5;0;0
2022-10-01 01:15:02;4.7;1011.87;5;0;0
2022-10-01 01:16:01;4.76;1011.85;5;0;0
2022-10-01 01:17:01;4.71;1011.94;6;0;0
2022-10-01 01:18:01;4.6;1011.88;6;0;0
2022-10-01 01:19:01;4.7;1011.94;6;0;0
2022-10-01 01:20:01;4.64;1012.01;5;0;0
2022-10-01 01:21:01;4.48;1012.04;6;0;0
2022-10-01 01:22:01;4.69;1012.07;6;0;0
2022-10-01 01:23:01;4.62;1011.99;5;0;0
2022-10-01 01:24:01;4.5;1011.94;5;0;0
2022-10-01 01:25:01;4.53;1011.95;5;0;0
2022-10-01 01:26:01;4.57;1011.98;6;0;0
2022-10-01 01:27:01;4.62;1012.01;5;0;0
2022-10-01 01:28:01;4.38;1012.12;5;0;0
2022-10-01 01:29:01;4.54;1012.02;6;0;0
2022-10-01 01:30:01;4.51;1012.06;5;0;0
2022-10-01 01:31:01;4.4;1012.1;6;0;0
2022-10-01 01:32:01;4.44;1012.13;5;0;0
2022-10-01 01:33:01;4.41;1012.02;6;0;0
2022-10-01 01:34:02;4.55;1012.07;6;0;0
2022-10-01 01:35:01;4.61;1012.09;6;0;0
2022-10-01 01:36:01;4.66;1012.15;5;0;0
2022-10-01 01:37:01;4.42;1012.26;5;0;0
2022-10-01 01:38:01;4.59;1012.28;5;0;0
2022-10-01 01:39:01;4.43;1012.31;5;0;0
2022-10-01 01:40:01;4.46;1012.33;5;0;0
2022-10-01 01:41:01;4.45;1012.36;6;0;0
2022-10-01 01:42:01;4.34;1012.43;5;0;0
2022-10-01 01:43:01;4.28;1012.39;5;0;0
2022-10-01 01:44:01;4.34;1012.38;5;0;0
2022-10-01 01:45:01;4.35;1012.37;5;0;0
2022-10-01 01:46:01;4.21;1012.35;4;0;0
2022-10-01 01:47:01;4.21;1012.42;5;0;0
2022-10-01 01:48:01;4.21;1012.41;6;0;0
2022-10-01 01:49:01;4.24;1012.38;6;0;0
2022-10-01 01:50:01;4.37;1012.46;5;0;0
2022-10-01 01:51:02;4.23;1012.43;5;0;0
2022-10-01 01:52:01;4.22;1012.35;5;0;0
2022-10-01 01:53:01;4.06;1012.43;5;0;0
2022-10-01 01:54:01;4.08;1012.43;6;0;0
2022-10-01 01:55:02;4.29;1012.44;6;0;0
2022-10-01 01:56:01;4.28;1012.48;5;0;0
2022-10-01 01:57:01;4.12;1012.5;5;0;0
2022-10-01 01:58:01;4.2;1012.42;5;0;0
2022-10-01 01:59:01;4.22;1012.41;6;0;0
2022-10-01 02:00:01;4.19;1012.48;6;0;0
2022-10-01 02:01:01;4.23;1012.54;5;0;0
2022-10-01 02:02:01;4.17;1012.46;5;0;0
2022-10-01 02:03:01;4.16;1012.5;6;0;0
2022-10-01 02:04:01;4.19;1012.53;5;0;0
2022-10-01 02:05:01;4.17;1012.47;5;0;0
2022-10-01 02:06:01;4.11;1012.51;5;0;0
2022-10-01 02:07:01;4.21;1012.49;4;0;0
2022-10-01 02:08:02;4.07;1012.44;5;0;0
2022-10-01 02:09:01;4.1;1012.48;6;0;0
2022-10-01 02:10:01;4.15;1012.48;5;0;0
2022-10-01 02:11:01;4.17;1012.45;6;0;0
2022-10-01 02:12:02;4.05;1012.49;5;0;0
2022-10-01 02:13:01;4.06;1012.51;5;0;0
2022-10-01 02:14:01;4.06;1012.49;6;0;0
2022-10-01 02:15:01;4.01;1012.52;5;0;0
2022-10-01 02:16:01;4.14;1012.39;5;0;0
2022-10-01 02:17:01;4.12;1012.48;5;0;0
2022-10-01 02:18:01;4.16;1012.39;5;0;0
2022-10-01 02:19:01;4.08;1012.43;5;0;0
2022-10-01 02:20:01;4.04;1012.44;5;0;0
2022-10-01 02:21:01;4.03;1012.36;5;0;0
2022-10-01 02:22:02;4.11;1012.48;5;0;0
2022-10-01 02:23:01;4.02;1012.46;5;0;0
2022-10-01 02:24:01;3.99;1012.35;6;0;0
2022-10-01 02:25:01;3.97;1012.38;5;0;0
2022-10-01 02:26:01;4.05;1012.42;5;0;0
2022-10-01 02:27:01;3.96;1012.36;5;0;0
2022-10-01 02:28:01;3.96;1012.44;5;0;0
2022-10-01 02:29:01;4.11;1012.43;6;0;0
2022-10-01 02:30:01;3.98;1012.4;4;0;0
2022-10-01 02:31:01;3.98;1012.44;5;0;0
2022-10-01 02:32:01;4.12;1012.42;5;0;0
2022-10-01 02:33:01;4.2;1012.44;5;0;0
2022-10-01 02:34:01;4.03;1012.42;5;0;0
2022-10-01 02:35:01;4.03;1012.46;5;0;0
2022-10-01 02:36:01;4;1012.41;4;0;0
2022-10-01 02:37:01;3.98;1012.46;4;0;0
2022-10-01 02:38:01;3.98;1012.4;5;0;0
2022-10-01 02:39:01;3.99;1012.41;4;0;0
2022-10-01 02:40:01;4.05;1012.44;4;0;0
2022-10-01 02:41:01;3.96;1012.43;5;0;0
2022-10-01 02:42:01;3.79;1012.4;5;0;0
2022-10-01 02:43:01;3.95;1012.42;5;0;0
2022-10-01 02:44:01;3.98;1012.43;5;0;0
2022-10-01 02:45:01;3.87;1012.42;5;0;0
2022-10-01 02:46:01;3.83;1012.41;5;0;0
2022-10-01 02:47:01;3.88;1012.39;5;0;0
2022-10-01 02:48:01;3.99;1012.47;5;0;0
2022-10-01 02:49:01;4.1;1012.46;6;0;0
2022-10-01 02:50:01;3.95;1012.46;5;0;0
2022-10-01 02:51:01;3.89;1012.52;5;0;0
2022-10-01 02:52:02;3.89;1012.46;5;0;0
2022-10-01 02:53:01;4.08;1012.43;4;0;0
2022-10-01 02:54:01;3.84;1012.42;5;0;0
2022-10-01 02:55:01;3.9;1012.49;5;0;0
2022-10-01 02:56:01;3.85;1012.47;5;0;0
2022-10-01 02:57:01;4;1012.48;4;0;0
2022-10-01 02:58:02;3.97;1012.39;5;0;0
2022-10-01 02:59:01;4.01;1012.39;5;0;0
2022-10-01 03:00:01;3.94;1012.36;5;0;0
2022-10-01 03:01:01;3.79;1012.44;5;0;0
2022-10-01 03:02:02;3.84;1012.42;5;0;0
2022-10-01 03:03:01;3.76;1012.45;5;0;0
2022-10-01 03:04:01;3.89;1012.43;5;0;0
2022-10-01 03:05:01;3.7;1012.35;5;0;0
2022-10-01 03:06:01;3.81;1012.33;5;0;0
2022-10-01 03:07:01;3.86;1012.41;4;0;0
2022-10-01 03:08:01;3.64;1012.41;5;0;0
2022-10-01 03:09:01;3.75;1012.42;5;0;0
2022-10-01 03:10:02;3.76;1012.45;5;0;0
2022-10-01 03:11:01;3.72;1012.45;5;0;0
2022-10-01 03:12:01;3.74;1012.44;5;0;0
2022-10-01 03:13:01;3.84;1012.44;4;0;0
2022-10-01 03:14:01;3.77;1012.44;5;0;0
2022-10-01 03:15:02;3.71;1012.44;5;0;0
2022-10-01 03:16:01;3.7;1012.43;5;0;0
2022-10-01 03:17:01;3.84;1012.45;6;0;0
2022-10-01 03:18:01;3.66;1012.41;5;0;0
2022-10-01 03:19:01;3.65;1012.48;5;0;0
2022-10-01 03:20:01;3.48;1012.47;5;0;0
2022-10-01 03:21:01;3.52;1012.44;5;0;0
2022-10-01 03:22:01;3.58;1012.45;5;0;0
2022-10-01 03:23:01;3.55;1012.47;5;0;0
2022-10-01 03:24:01;3.59;1012.44;5;0;0
2022-10-01 03:25:01;3.7;1012.48;5;0;0
2022-10-01 03:26:01;3.73;1012.45;5;0;0
2022-10-01 03:27:02;3.73;1012.44;5;0;0
2022-10-01 03:28:01;3.46;1012.42;4;0;0
2022-10-01 03:29:01;3.51;1012.39;5;0;0
2022-10-01 03:30:01;3.54;1012.41;5;0;0
2022-10-01 03:31:02;3.43;1012.45;5;0;0
2022-10-01 03:32:01;3.48;1012.42;5;0;0
2022-10-01 03:33:01;3.48;1012.49;4;0;0
2022-10-01 03:34:01;3.45;1012.49;5;0;0
2022-10-01 03:35:01;3.57;1012.47;5;0;0
2022-10-01 03:36:01;3.39;1012.44;5;0;0
2022-10-01 03:37:01;3.49;1012.43;5;0;0
2022-10-01 03:38:01;3.52;1012.44;5;0;0
2022-10-01 03:39:01;3.35;1012.42;5;0;0
2022-10-01 03:40:01;3.36;1012.46;5;0;0
2022-10-01 03:41:02;3.46;1012.49;6;0;0
2022-10-01 03:42:01;3.43;1012.48;3;0;0
2022-10-01 03:43:01;3.23;1012.5;4;0;0
2022-10-01 03:44:01;3.34;1012.52;5;0;0
2022-10-01 03:45:02;3.36;1012.47;5;0;0
2022-10-01 03:46:01;3.31;1012.53;5;0;0
2022-10-01 03:47:01;3.32;1012.52;5;0;0
2022-10-01 03:48:01;3.26;1012.49;5;0;0
2022-10-01 03:49:01;3.46;1012.49;5;0;0
2022-10-01 03:50:01;3.02;1012.55;5;0;0
2022-10-01 03:51:01;3.31;1012.61;4;0;0
2022-10-01 03:52:01;3.25;1012.55;4;0;0
2022-10-01 03:53:01;3.07;1012.52;5;0;0
2022-10-01 03:54:01;3.14;1012.56;4;0;0
2022-10-01 03:55:01;3.18;1012.52;4;0;0
2022-10-01 03:56:01;3.33;1012.49;5;0;0
2022-10-01 03:57:02;3.17;1012.43;6;0;0
2022-10-01 03:58:01;3.26;1012.49;5;0;0
2022-10-01 03:59:01;3.2;1012.5;5;0;0
2022-10-01 04:00:01;3.13;1012.46;4;0;0
2022-10-01 04:01:01;3.17;1012.49;4;0;0
2022-10-01 04:02:02;3.28;1012.48;4;0;0
2022-10-01 04:03:01;3.49;1012.52;5;0;0
2022-10-01 04:04:01;3.15;1012.53;4;0;0
2022-10-01 04:05:01;3.11;1012.52;4;0;0
2022-10-01 04:06:01;3.26;1012.52;5;0;0
2022-10-01 04:07:02;3.54;1012.48;6;0;0
2022-10-01 04:08:01;3.53;1012.52;5;0;0
2022-10-01 04:09:01;3.51;1012.5;5;0;0
2022-10-01 04:10:01;3.39;1012.52;5;0;0
2022-10-01 04:11:01;3.38;1012.51;4;0;0
2022-10-01 04:12:01;3.51;1012.49;4;0;0
2022-10-01 04:13:01;3.27;1012.48;4;0;0
2022-10-01 04:14:01;3.41;1012.46;5;0;0
2022-10-01 04:15:01;3.45;1012.42;5;0;0
2022-10-01 04:16:01;3.48;1012.46;5;0;0
2022-10-01 04:17:01;3.39;1012.45;5;0;0
2022-10-01 04:18:01;3.6;1012.41;6;0;0
2022-10-01 04:19:01;3.6;1012.38;5;0;0
2022-10-01 04:20:01;3.71;1012.37;5;0;0
2022-10-01 04:21:01;3.58;1012.41;5;0;0
2022-10-01 04:22:01;3.54;1012.41;5;0;0
2022-10-01 04:23:01;3.42;1012.4;5;0;0
2022-10-01 04:24:01;3.46;1012.41;5;0;0
2022-10-01 04:25:01;3.69;1012.48;4;0;0
2022-10-01 04:26:01;3.56;1012.49;5;0;0
2022-10-01 04:27:01;3.62;1012.44;5;0;0
2022-10-01 04:28:01;3.76;1012.46;4;0;0
2022-10-01 04:29:01;3.81;1012.49;4;0;0
2022-10-01 04:30:01;3.67;1012.47;4;0;0
2022-10-01 04:31:01;3.72;1012.5;5;0;0
2022-10-01 04:32:01;3.49;1012.52;5;0;0
2022-10-01 04:33:01;3.74;1012.49;5;0;0
2022-10-01 04:34:01;3.7;1012.56;4;0;0
2022-10-01 04:35:01;3.78;1012.49;5;0;0
2022-10-01 04:36:01;3.86;1012.48;5;0;0
2022-10-01 04:37:01;3.78;1012.47;5;0;0
2022-10-01 04:38:01;3.74;1012.52;5;0;0
2022-10-01 04:39:01;3.77;1012.55;5;0;0
2022-10-01 04:40:01;3.66;1012.59;4;0;0
2022-10-01 04:41:01;3.54;1012.54;5;0;0
2022-10-01 04:42:01;3.77;1012.52;5;0;0
2022-10-01 04:43:02;3.74;1012.48;4;0;0
2022-10-01 04:44:01;3.72;1012.47;5;0;0
2022-10-01 04:45:01;3.62;1012.48;5;0;0
2022-10-01 04:46:01;3.58;1012.53;4;0;0
2022-10-01 04:47:01;3.67;1012.57;4;0;0
2022-10-01 04:48:01;3.8;1012.5;5;0;0
2022-10-01 04:49:01;3.9;1012.42;4;0;0
2022-10-01 04:50:01;3.9;1012.4;4;0;0
2022-10-01 04:51:01;3.72;1012.46;5;0;0
2022-10-01 04:52:01;3.61;1012.51;4;0;0
2022-10-01 04:53:01;3.85;1012.44;5;0;0
2022-10-01 04:54:01;3.84;1012.45;5;0;0
2022-10-01 04:55:01;3.86;1012.43;4;0;0
2022-10-01 04:56:01;3.87;1012.43;3;0;0
2022-10-01 04:57:02;3.9;1012.48;4;0;0
2022-10-01 04:58:01;3.82;1012.47;4;0;0
2022-10-01 04:59:01;3.89;1012.45;4;0;0
2022-10-01 05:00:01;3.89;1012.53;5;0;0
2022-10-01 05:01:01;3.84;1012.52;4;0;0
2022-10-01 05:02:01;3.96;1012.56;5;0;0
2022-10-01 05:03:01;3.95;1012.52;4;0;0
2022-10-01 05:04:01;3.92;1012.51;5;0;0
2022-10-01 05:05:01;4.02;1012.57;4;0;0
2022-10-01 05:06:01;4.1;1012.58;5;0;0
2022-10-01 05:07:02;3.98;1012.59;4;0;0
2022-10-01 05:08:01;4.08;1012.61;5;0;0
2022-10-01 05:09:01;3.96;1012.55;5;0;0
2022-10-01 05:10:01;4.04;1012.54;5;0;0
2022-10-01 05:11:01;4.21;1012.56;5;0;0
2022-10-01 05:12:01;4.23;1012.55;4;0;0
2022-10-01 05:13:01;4.22;1012.57;5;0;0
2022-10-01 05:14:01;4.2;1012.56;4;0;0
2022-10-01 05:15:01;4.13;1012.52;4;0;0
2022-10-01 05:16:01;4.19;1012.46;5;0;0
2022-10-01 05:17:01;4.16;1012.49;5;0;0
2022-10-01 05:18:01;4.28;1012.48;4;0;0
2022-10-01 05:19:01;4.16;1012.49;5;0;0
2022-10-01 05:20:01;4.27;1012.52;5;0;0
2022-10-01 05:21:01;4.04;1012.54;5;0;0
2022-10-01 05:22:01;4.19;1012.53;4;0;0
2022-10-01 05:23:01;4.17;1012.53;4;0;0
2022-10-01 05:24:01;4.21;1012.55;4;0;0
2022-10-01 05:25:01;4.22;1012.57;4;0;0
2022-10-01 05:26:01;4.19;1012.56;4;0;0
2022-10-01 05:27:01;4.18;1012.58;5;0;0
2022-10-01 05:28:01;4.11;1012.58;4;0;0
2022-10-01 05:29:01;4.2;1012.6;4;0;0
2022-10-01 05:30:01;4.4;1012.6;5;0;0
2022-10-01 05:31:01;4.22;1012.57;5;0;0
2022-10-01 05:32:01;4.3;1012.59;5;0;0
2022-10-01 05:33:01;4.18;1012.59;4;0;0
2022-10-01 05:34:01;4.32;1012.61;4;0;0
2022-10-01 05:35:01;4.27;1012.58;4;0;0
2022-10-01 05:36:01;4.16;1012.49;5;0;0
2022-10-01 05:37:01;4.28;1012.55;5;0;0
2022-10-01 05:38:01;4.16;1012.53;5;0;0
2022-10-01 05:39:01;4.09;1012.51;4;0;0
2022-10-01 05:40:01;4.19;1012.52;5;0;0
2022-10-01 05:41:01;4.11;1012.44;5;0;0
2022-10-01 05:42:01;4.13;1012.52;5;0;0
2022-10-01 05:43:01;4.13;1012.54;4;0;0
2022-10-01 05:44:01;4.1;1012.46;4;0;0
2022-10-01 05:45:01;4.24;1012.46;5;0;0
2022-10-01 05:46:01;4.1;1012.49;5;0;0
2022-10-01 05:47:02;4.07;1012.51;4;0;0
2022-10-01 05:48:01;4.12;1012.49;5;0;0
2022-10-01 05:49:01;4.28;1012.42;5;0;0
2022-10-01 05:50:01;3.98;1012.43;4;0;0
2022-10-01 05:51:01;4.15;1012.48;5;0;0
2022-10-01 05:52:01;4.04;1012.46;5;0;0
2022-10-01 05:53:01;4.21;1012.53;5;0;0
2022-10-01 05:54:01;4.14;1012.54;5;0;0
2022-10-01 05:55:01;4.01;1012.52;4;0;0
2022-10-01 05:56:01;4.03;1012.5;5;0;0
2022-10-01 05:57:01;3.94;1012.51;4;0;0
2022-10-01 05:58:01;4.04;1012.43;4;0;0
2022-10-01 05:59:01;4.11;1012.46;6;0;0
2022-10-01 06:00:02;4.06;1012.47;5;0;0
2022-10-01 06:01:01;3.94;1012.46;6;0;0
2022-10-01 06:02:01;4.14;1012.45;5;0;0
2022-10-01 06:03:01;4.03;1012.52;4;0;0
2022-10-01 06:04:01;3.96;1012.48;3;0;0
2022-10-01 06:05:01;3.99;1012.52;5;0;0
2022-10-01 06:06:01;3.95;1012.49;5;0;0
2022-10-01 06:07:01;3.74;1012.52;5;0;0
2022-10-01 06:08:01;3.78;1012.52;4;0;0
2022-10-01 06:09:01;3.77;1012.53;5;0;0
2022-10-01 06:10:01;3.75;1012.51;5;0;0
2022-10-01 06:11:01;3.9;1012.55;5;0;0
2022-10-01 06:12:01;3.74;1012.56;5;0;0
2022-10-01 06:13:01;3.68;1012.56;5;0;0
2022-10-01 06:14:02;3.81;1012.53;4;0;0
2022-10-01 06:15:01;3.8;1012.5;4;0;0
2022-10-01 06:16:01;3.66;1012.51;5;0;0
2022-10-01 06:17:01;3.68;1012.5;4;0;0
2022-10-01 06:18:01;3.62;1012.54;5;0;0
2022-10-01 06:19:01;3.62;1012.53;6;0;0
2022-10-01 06:20:01;3.47;1012.51;5;0;0
2022-10-01 06:21:01;3.7;1012.55;5;0;0
2022-10-01 06:22:01;3.4;1012.49;6;0;0
2022-10-01 06:23:01;3.66;1012.46;6;0;0
2022-10-01 06:24:02;3.61;1012.49;5;0;0
2022-10-01 06:25:01;3.73;1012.46;6;0;0
2022-10-01 06:26:02;3.55;1012.39;6;0;0
2022-10-01 06:27:01;3.56;1012.44;6;0;0
2022-10-01 06:28:01;3.67;1012.49;6;0;0
2022-10-01 06:29:01;3.63;1012.52;5;0;0
2022-10-01 06:30:01;3.61;1012.52;6;0;0
2022-10-01 06:31:01;3.78;1012.5;7;0;0
2022-10-01 06:32:01;3.5;1012.42;6;0;0
2022-10-01 06:33:01;3.65;1012.46;7;0;0
2022-10-01 06:34:01;3.55;1012.48;7;0;0
2022-10-01 06:35:01;3.64;1012.48;8;0;0
2022-10-01 06:36:01;3.57;1012.51;10;0;0
2022-10-01 06:37:01;3.71;1012.54;11;0;0
2022-10-01 06:38:01;3.44;1012.52;13;0;0
2022-10-01 06:39:01;3.52;1012.46;15;0;0
2022-10-01 06:40:01;3.74;1012.46;18;0;0
2022-10-01 06:41:01;3.74;1012.52;21;0;0
2022-10-01 06:42:01;3.77;1012.49;26;0;0
2022-10-01 06:43:01;3.45;1012.45;33;0;0
2022-10-01 06:44:01;3.77;1012.44;41;0;0
2022-10-01 06:45:01;3.63;1012.43;48;0;0
2022-10-01 06:46:01;3.57;1012.38;57;0;0
2022-10-01 06:47:01;3.57;1012.38;68;0;0
2022-10-01 06:48:01;3.73;1012.42;76;0;0
2022-10-01 06:49:01;3.84;1012.42;90;0;0
2022-10-01 06:50:01;3.65;1012.42;123;0;0
2022-10-01 06:51:01;3.62;1012.39;176;0;0
2022-10-01 06:52:02;3.53;1012.44;237;0;0
2022-10-01 06:53:01;3.66;1012.39;300;0;0
2022-10-01 06:54:01;3.74;1012.43;346;0;0
2022-10-01 06:55:01;3.78;1012.46;377;0;0
2022-10-01 06:56:01;3.58;1012.38;394;0;0
2022-10-01 06:57:01;3.66;1012.38;408;0;0
2022-10-01 06:58:01;3.61;1012.43;419;0;0
2022-10-01 06:59:01;3.87;1012.45;432;0;0
2022-10-01 07:00:01;3.96;1012.45;449;0;0
2022-10-01 07:01:02;3.72;1012.48;453;0;0
2022-10-01 07:02:01;3.76;1012.38;469;0;0
2022-10-01 07:03:01;3.71;1012.33;471;0;0
2022-10-01 07:04:01;3.91;1012.33;485;0;0
2022-10-01 07:05:02;3.89;1012.35;496;0;0
2022-10-01 07:06:01;3.88;1012.33;506;0;0
2022-10-01 07:07:01;3.82;1012.35;513;0;0
2022-10-01 07:08:01;3.87;1012.35;527;0;0
2022-10-01 07:09:02;3.96;1012.34;552;0;0
2022-10-01 07:10:01;3.94;1012.31;574;0;0
2022-10-01 07:11:01;3.89;1012.37;592;0;0
2022-10-01 07:12:01;3.87;1012.33;602;0;0
2022-10-01 07:13:01;3.94;1012.3;617;0;0
2022-10-01 07:14:01;3.87;1012.37;644;0;0
2022-10-01 07:15:01;3.93;1012.43;672;0;0
2022-10-01 07:16:01;3.87;1012.45;699;0;0
2022-10-01 07:17:01;3.95;1012.42;731;0;0
2022-10-01 07:18:01;3.96;1012.47;776;0;0
2022-10-01 07:19:01;4.16;1012.33;830;0;0
2022-10-01 07:20:01;4.04;1012.35;877;0;0
2022-10-01 07:21:01;3.92;1012.3;917;0;0
2022-10-01 07:22:01;3.98;1012.39;958;0;0
2022-10-01 07:23:01;4.13;1012.35;980;0;0
2022-10-01 07:24:01;4.21;1012.32;990;0;0
2022-10-01 07:25:01;4.2;1012.28;994;0;0
2022-10-01 07:26:01;4.15;1012.35;1006;0;0
2022-10-01 07:27:01;4.06;1012.28;1016;0;0
2022-10-01 07:28:01;4.18;1012.31;1030;0;0
2022-10-01 07:29:01;4.13;1012.33;1050;0;0
2022-10-01 07:30:01;4.23;1012.37;1075;0;0
2022-10-01 07:31:01;4.06;1012.35;1100;0;0
2022-10-01 07:32:01;4.1;1012.32;1118;0;0
2022-10-01 07:33:01;4.18;1012.23;1135;0;0
2022-10-01 07:34:01;4.17;1012.34;1167;0;0
2022-10-01 07:35:01;4.32;1012.31;1216;0;0
2022-10-01 07:36:01;4.28;1012.3;1268;0;0
2022-10-01 07:37:01;4.25;1012.35;1315;0;0
2022-10-01 07:38:01;4.24;1012.37;1342;0;0
2022-10-01 07:39:01;4.28;1012.34;1345;0;0
2022-10-01 07:40:02;4.22;1012.34;1353;0;0
2022-10-01 07:41:01;4.34;1012.34;1386;0;0
2022-10-01 07:42:01;4.39;1012.25;1412;0;0
2022-10-01 07:43:01;4.42;1012.24;1413;0;0
2022-10-01 07:44:01;4.59;1012.31;1404;0;0
2022-10-01 07:45:01;4.65;1012.34;1397;0;0
2022-10-01 07:46:01;4.51;1012.26;1413;0;0
2022-10-01 07:47:01;4.58;1012.31;1430;0;0
2022-10-01 07:48:01;4.48;1012.33;1443;0;0
2022-10-01 07:49:02;4.53;1012.35;1460;0;0
2022-10-01 07:50:01;4.44;1012.31;1486;0;0
2022-10-01 07:51:01;4.58;1012.34;1497;0;0
2022-10-01 07:52:01;4.36;1012.33;1426;0;0
2022-10-01 07:53:01;4.51;1012.32;1399;0;0
2022-10-01 07:54:01;4.34;1012.32;1422;0;0
2022-10-01 07:55:01;4.39;1012.39;1381;0;0
2022-10-01 07:56:01;4.4;1012.47;1362;0;0
2022-10-01 07:57:02;4.49;1012.45;1364;0;0
2022-10-01 07:58:01;4.34;1012.41;1367;0;0
2022-10-01 07:59:01;4.37;1012.41;1379;0;0
2022-10-01 08:00:01;4.5;1012.35;1410;0;0
2022-10-01 08:01:02;4.38;1012.33;1414;0;0
2022-10-01 08:02:01;4.7;1012.39;1437;0;0
2022-10-01 08:03:01;4.5;1012.35;1447;0;0
2022-10-01 08:04:01;4.41;1012.39;1457;0;0
2022-10-01 08:05:01;4.63;1012.32;1462;0;0
2022-10-01 08:06:01;4.62;1012.25;1467;0;0
2022-10-01 08:07:01;4.54;1012.34;1482;0;0
2022-10-01 08:08:02;4.6;1012.39;1499;0;0
2022-10-01 08:09:01;4.68;1012.24;1522;0;0
2022-10-01 08:10:01;4.67;1012.32;1551;0;0
2022-10-01 08:11:01;4.61;1012.36;1570;0;0
2022-10-01 08:12:01;4.67;1012.33;1590;0;0
2022-10-01 08:13:01;4.82;1012.37;1611;0;0
2022-10-01 08:14:01;4.8;1012.36;1634;0;0
2022-10-01 08:15:01;4.83;1012.33;1624;0;0
2022-10-01 08:16:01;4.87;1012.18;1617;0;0
2022-10-01 08:17:01;4.94;1012.18;1621;0;0
2022-10-01 08:18:01;4.98;1012.28;1630;0;0
2022-10-01 08:19:01;4.93;1012.26;1632;0;0
2022-10-01 08:20:01;5.16;1012.31;1624;0;0
2022-10-01 08:21:01;5.14;1012.35;1606;0;0
2022-10-01 08:22:01;5.04;1012.26;1593;0;0
2022-10-01 08:23:02;5.2;1012.31;1582;0;0
2022-10-01 08:24:01;4.99;1012.24;1572;0;0
2022-10-01 08:25:01;5.04;1012.28;1568;0;0
2022-10-01 08:26:01;5.19;1012.2;1572;0;0
2022-10-01 08:27:01;5.17;1012.23;1583;0;0
2022-10-01 08:28:01;5.25;1012.22;1586;0;0
2022-10-01 08:29:01;5.28;1012.21;1586;0;0
2022-10-01 08:30:01;5.11;1012.21;1598;0;0
2022-10-01 08:31:01;5.08;1012.22;1621;0;0
2022-10-01 08:32:01;4.99;1012.16;1647;0;0
2022-10-01 08:33:01;5.19;1012.24;1684;0;0
2022-10-01 08:34:01;5.04;1012.13;1709;0;0
2022-10-01 08:35:01;5.01;1012.15;1732;0;0
2022-10-01 08:36:01;5.09;1012.1;1768;0;0
2022-10-01 08:37:01;4.96;1012.11;1765;0;0
2022-10-01 08:38:01;5.1;1012.07;1752;0;0
2022-10-01 08:39:01;5.12;1012.21;1737;0;0
2022-10-01 08:40:01;5.26;1012.06;1732;0;0
2022-10-01 08:41:01;5.26;1012.1;1740;0;0
2022-10-01 08:42:01;5.27;1012.05;1732;0;0
2022-10-01 08:43:02;5.17;1012.1;1736;0;0
2022-10-01 08:44:01;5.25;1012.1;1736;0;0
2022-10-01 08:45:01;5.04;1011.99;1729;0;0
2022-10-01 08:46:01;5.17;1011.99;1730;0;0
2022-10-01 08:47:01;5.38;1011.99;1739;0;0
2022-10-01 08:48:01;5.26;1011.9;1742;0;0
2022-10-01 08:49:02;5.35;1011.9;1747;0;0
2022-10-01 08:50:01;5.3;1011.94;1751;0;0
2022-10-01 08:51:01;5.41;1011.87;1757;0;0
2022-10-01 08:52:01;5.34;1011.83;1776;0;0
2022-10-01 08:53:01;5.47;1011.9;1800;0;0
2022-10-01 08:54:01;5.42;1012.05;1822;0;0
2022-10-01 08:55:01;5.34;1012.07;1836;0;0
2022-10-01 08:56:01;5.53;1012.03;1851;0;0
2022-10-01 08:57:01;5.52;1011.95;1874;0;0
2022-10-01 08:58:01;5.63;1011.9;1898;0;0
2022-10-01 08:59:01;5.9;1011.91;1896;0;0
2022-10-01 09:00:01;5.82;1011.95;1893;0;0
2022-10-01 09:01:01;5.68;1011.93;1896;0;0
2022-10-01 09:02:01;5.57;1011.92;1884;0;0
2022-10-01 09:03:01;5.7;1011.87;1879;0;0
2022-10-01 09:04:01;5.65;1011.87;1871;0;0
2022-10-01 09:05:01;5.89;1011.81;1868;0;0
2022-10-01 09:06:01;5.73;1011.75;1868;0;0
2022-10-01 09:07:01;5.82;1011.78;1855;0;0
2022-10-01 09:08:01;5.69;1011.82;1837;0;0
2022-10-01 09:09:02;5.71;1011.92;1831;0;0
2022-10-01 09:10:01;5.88;1011.87;1830;0;0
2022-10-01 09:11:01;5.84;1011.82;1826;0;0
2022-10-01 09:12:01;5.97;1011.85;1804;0;0
2022-10-01 09:13:01;5.87;1011.78;1823;0;0
2022-10-01 09:14:01;5.92;1011.71;1831;0;0
2022-10-01 09:15:01;5.85;1011.73;1811;0;0
2022-10-01 09:16:02;5.76;1011.64;1793;0;0
2022-10-01 09:17:01;5.93;1011.67;1796;0;0
2022-10-01 09:18:01;5.97;1011.64;1815;0;0
2022-10-01 09:19:01;5.95;1011.64;1842;0;0
2022-10-01 09:20:01;5.94;1011.63;1859;0;0
2022-10-01 09:21:01;6.03;1011.57;1862;0;0
2022-10-01 09:22:01;5.85;1011.62;1863;0;0
2022-10-01 09:23:02;5.9;1011.58;1855;0;0
2022-10-01 09:24:01;6.05;1011.53;1826;0;0
2022-10-01 09:25:01;5.96;1011.52;1783;0;0
2022-10-01 09:26:01;6.03;1011.5;1725;0;0
2022-10-01 09:27:01;6.01;1011.51;1718;0;0
2022-10-01 09:28:01;5.93;1011.42;1738;0;0
2022-10-01 09:29:01;6.08;1011.37;1747;0;0
2022-10-01 09:30:01;6.2;1011.44;1750;0;0
2022-10-01 09:31:01;6.23;1011.41;1736;0;0
2022-10-01 09:32:01;6.08;1011.31;1728;0;0
2022-10-01 09:33:01;6.18;1011.41;1732;0;0
2022-10-01 09:34:01;6.18;1011.37;1743;0;0
2022-10-01 09:35:01;6.12;1011.34;1749;0;0
2022-10-01 09:36:01;6.21;1011.38;1761;0;0
2022-10-01 09:37:02;6.36;1011.33;1784;0;0
2022-10-01 09:38:01;6.3;1011.29;1801;0;0
2022-10-01 09:39:01;6.29;1011.3;1826;0;0
2022-10-01 09:40:01;6.24;1011.3;1866;0;0
2022-10-01 09:41:01;6.27;1011.32;1883;0;0
2022-10-01 09:42:01;6.41;1011.26;1898;0;0
2022-10-01 09:43:01;6.51;1011.25;1924;0;0
2022-10-01 09:44:01;6.31;1011.21;1932;0;0
2022-10-01 09:45:01;6.45;1011.21;1942;0;0
2022-10-01 09:46:01;6.63;1011.18;1958;0;0
2022-10-01 09:47:01;6.56;1011.09;1966;0;0
2022-10-01 09:48:01;6.52;1011.12;1976;0;0
2022-10-01 09:49:01;6.56;1011.03;1983;0;0
2022-10-01 09:50:01;6.63;1010.96;2004;0;0
2022-10-01 09:51:01;6.66;1010.91;2024;0;0
2022-10-01 09:52:01;6.65;1010.92;2039;0;0
2022-10-01 09:53:01;6.72;1010.98;2045;0;0
2022-10-01 09:54:01;6.76;1010.9;2045;0;0
2022-10-01 09:55:01;6.67;1010.87;2039;0;0
2022-10-01 09:56:01;6.85;1011;2024;0;0
2022-10-01 09:57:01;6.77;1011;2001;0;0
2022-10-01 09:58:01;6.85;1010.94;1985;0;0
2022-10-01 09:59:01;6.88;1010.88;1971;0;0
2022-10-01 10:00:01;6.8;1010.82;1960;0;0